Altus AFB, OK

2:39 PM CST on November 19, 2017 (GMT -0600)
Altus Air Force Base

Weather History for KLTS - October, 2012

Change the Weather History Date:

Thursday, October 25, 2012

  Actual Average Record
Temperature  
Mean Temperature 59 °F -  
Max Temperature 69 °F 69 °F 93 °F (2014)
Min Temperature 46 °F 47 °F 33 °F (2005)
Degree Days  
Heating Degree Days 6    
Growing Degree Days 9 (Base 50)    
Moisture  
Dew Point 45 °F    
Average Humidity 63    
Maximum Humidity 86    
Minimum Humidity 42    
Precipitation  
Precipitation 0.01 in - - ()
Sea Level Pressure  
Sea Level Pressure 29.94 in    
Wind  
Wind Speed 15 mph (North)    
Max Wind Speed 30 mph    
Max Gust Speed 39 mph    
Visibility 10 miles    
Events      
Averages and records for this station are not official NWS values.
T = Trace of Precipitation, MM = Missing Value Source: NWS Daily Summary

Daily Weather History Graph

Daily Weather History Graph

Search for Another Location

Airport or City:

Trip Planner

Search our weather history database for the weather conditions in past years. The results will help you decide how hot, cold, wet, or windy it might be!

Date:

Astronomy

Oct. 25, 2012 Rise Set
Actual Time 7:51 AM CDT 6:49 PM CDT
Civil Twilight 7:25 AM CDT 7:15 PM CDT
Nautical Twilight 6:56 AM CDT 7:45 PM CDT
Astronomical Twilight 6:27 AM CDT 8:14 PM CDT
Moon 4:29 PM CDT (10/25) 3:58 AM CDT (10/25)
Length of Visible Light 11h 49m
Length of Day
10h 58m
Waxing Gibbous, 84% of the Moon is Illuminated
Oct 25
Waxing Gibbous
Oct 29
Full
Nov 6
Last Quarter
Nov 13
New
Nov 20
First Quarter

Hourly Weather History & Observations

Time (CDT) Temp. Dew Point Humidity Pressure Visibility Wind Dir Wind Speed Gust Speed Precip Events Conditions
12:55 AM 70.0 °F 61.2 °F 73% 29.67 in 10.0 mi SSE 13.8 mph - N/A   Clear
1:55 AM 69.4 °F 61.0 °F 74% 29.67 in 10.0 mi SSE 12.7 mph - N/A   Clear
2:55 AM 68.4 °F 60.8 °F 77% 29.68 in 10.0 mi SSE 8.1 mph - N/A   Clear
3:55 AM 68.2 °F 60.4 °F 76% 29.68 in 10.0 mi SSE 8.1 mph - N/A   Clear
4:55 AM 66.6 °F 59.9 °F 79% 29.67 in 10.0 mi South 6.9 mph - N/A   Clear
5:55 AM 63.1 °F 58.8 °F 86% 29.71 in 10.0 mi ESE 5.8 mph - N/A   Clear
6:55 AM 64.2 °F 59.4 °F 84% 29.75 in 10.0 mi South 3.5 mph - N/A   Partly Cloudy
7:06 AM 62.6 °F 57.2 °F 82% 29.79 in 10.0 mi NW 21.9 mph 28.8 mph N/A   Mostly Cloudy
7:11 AM 62.6 °F 55.4 °F 77% 29.79 in 10.0 mi NNW 29.9 mph 34.5 mph N/A   Mostly Cloudy
7:15 AM 62.6 °F 53.6 °F 72% 29.80 in 10.0 mi NNW 27.6 mph 34.5 mph N/A   Mostly Cloudy
7:38 AM 59.0 °F 50.0 °F 72% 29.83 in 10.0 mi NNW 27.6 mph 35.7 mph N/A   Overcast
7:55 AM 58.8 °F 49.5 °F 71% 29.85 in 10.0 mi NNW 21.9 mph 31.1 mph N/A   Overcast
8:55 AM 54.3 °F 43.3 °F 66% 29.92 in 10.0 mi North 26.5 mph 39.1 mph 0.01 in   Overcast
9:32 AM 53.6 °F 42.8 °F 67% 29.97 in 10.0 mi North 20.7 mph 33.4 mph N/A   Overcast
9:55 AM 53.1 °F 41.5 °F 65% 29.98 in 10.0 mi North 20.7 mph 32.2 mph N/A   Scattered Clouds
10:55 AM 56.7 °F 40.8 °F 55% 30.01 in 10.0 mi North 18.4 mph 33.4 mph N/A   Clear
11:55 AM 56.3 °F 37.6 °F 50% 30.03 in 10.0 mi North 24.2 mph 38.0 mph N/A   Clear
12:55 PM 56.8 °F 36.5 °F 47% 30.05 in 10.0 mi NNW 18.4 mph 35.7 mph N/A   Clear
1:55 PM 57.7 °F 36.9 °F 46% 30.05 in 10.0 mi North 20.7 mph 33.4 mph N/A   Clear
2:55 PM 58.6 °F 37.0 °F 45% 30.05 in 10.0 mi North 21.9 mph 32.2 mph N/A   Clear
3:55 PM 59.2 °F 36.3 °F 43% 30.04 in 10.0 mi North 20.7 mph 29.9 mph N/A   Clear
4:55 PM 59.0 °F 35.6 °F 42% 30.06 in 10.0 mi North 17.3 mph 28.8 mph N/A   Clear
5:55 PM 57.4 °F 35.4 °F 44% 30.09 in 10.0 mi NNE 17.3 mph 27.6 mph N/A   Clear
6:55 PM 54.1 °F 34.9 °F 48% 30.11 in 10.0 mi NNE 13.8 mph - N/A   Clear
7:55 PM 51.8 °F 35.2 °F 53% 30.15 in 10.0 mi North 11.5 mph - N/A   Clear
8:55 PM 50.5 °F 34.9 °F 55% 30.18 in 10.0 mi NNE 15.0 mph - N/A   Clear
9:55 PM 48.6 °F 34.9 °F 59% 30.20 in 10.0 mi NNE 11.5 mph - N/A   Clear
10:55 PM 48.4 °F 34.0 °F 58% 30.22 in 10.0 mi NNE 11.5 mph - N/A   Clear
11:55 PM 46.8 °F 33.8 °F 61% 30.23 in 10.0 mi NNE 11.5 mph - N/A   Clear